Tracking 35334 objects as of 13-Sep-2026
HD Live streaming from Space Station
objects crossing your sky now

STARLINK-36268

Track STARLINK-36268 now!
10-day predictions
STARLINK-36268 is classified as:


NORAD ID: 67199
Int'l Code: 2025-304H
Launch date: December 17, 2025
Source: United States (US)
Launch site: AIR FORCE WESTERN TEST RANGE (AFWTR)
Your satellite tracking list
Your tracking list is empty




NASA's NSSDC Master Catalog

Two Line Element Set (TLE):
1 67199U 25304H   26255.89520105  .00003362  00000-0  28942-3 0  9998
2 67199  70.0005  62.5450 0002491 265.8002  94.2873 14.98328976 41912
Source of the keplerian elements: AFSPC